Time,TemperatureF,DewpointF,PressureIn,WindDirection,WindDirectionDegrees,WindSpeedMPH,WindSpeedGustMPH,Humidity,HourlyPrecipIn,Conditions,Clouds,dailyrainin,SoftwareType,DateUTC
2013-03-07 00:02:00,36.0,33.0,-100.00,SSE,150,30.0,42.0,88,-99.99,,,-99.99,,2013-03-07 05:02:00,
2013-03-07 00:12:00,36.0,33.0,-100.00,SE,140,33.0,42.0,89,-99.99,,,-99.99,,2013-03-07 05:12:00,
2013-03-07 00:22:00,36.0,33.0,-100.00,SE,140,33.0,42.0,89,-99.99,,,-99.99,,2013-03-07 05:22:00,
2013-03-07 00:32:00,36.0,33.0,-100.00,SE,140,30.0,39.0,89,-99.99,,,-99.99,,2013-03-07 05:32:00,
2013-03-07 00:42:00,36.0,33.0,-100.00,SE,135,33.0,40.0,89,-99.99,,,-99.99,,2013-03-07 05:42:00,
2013-03-07 00:52:00,36.0,33.0,-100.00,SE,135,33.0,40.0,89,-99.99,,,-99.99,,2013-03-07 05:52:00,
2013-03-07 01:02:00,35.0,33.0,-100.00,SE,140,34.0,42.0,89,-99.99,,,-99.99,,2013-03-07 06:02:00,
2013-03-07 01:11:00,36.0,33.0,-100.00,SE,145,30.0,40.0,89,-99.99,,,-99.99,,2013-03-07 06:11:00,
2013-03-07 01:22:00,36.0,33.0,-100.00,SE,145,30.0,40.0,89,-99.99,,,-99.99,,2013-03-07 06:22:00,
2013-03-07 01:32:00,36.0,33.0,-100.00,SE,140,30.0,40.0,89,-99.99,,,-99.99,,2013-03-07 06:32:00,
2013-03-07 01:42:00,36.0,33.0,-100.00,SE,135,35.0,42.0,89,-99.99,,,-99.99,,2013-03-07 06:42:00,
2013-03-07 01:52:00,36.0,32.0,-100.00,SE,140,35.0,42.0,88,-99.99,,,-99.99,,2013-03-07 06:52:00,
2013-03-07 02:02:00,36.0,32.0,-100.00,SE,140,35.0,42.0,88,-99.99,,,-99.99,,2013-03-07 07:02:00,
2013-03-07 02:11:00,36.0,32.0,-100.00,SE,140,32.0,40.0,88,-99.99,,,-99.99,,2013-03-07 07:11:00,
2013-03-07 02:22:00,36.0,32.0,-100.00,SE,140,32.0,40.0,88,-99.99,,,-99.99,,2013-03-07 07:22:00,
2013-03-07 02:32:00,36.0,33.0,-100.00,SE,135,29.0,40.0,88,-99.99,,,-99.99,,2013-03-07 07:32:00,
2013-03-07 02:43:00,36.0,33.0,-100.00,SE,140,30.0,41.0,88,-99.99,,,-99.99,,2013-03-07 07:43:00,
2013-03-07 02:53:00,36.0,33.0,-100.00,SE,140,30.0,41.0,88,-99.99,,,-99.99,,2013-03-07 07:53:00,
2013-03-07 03:03:00,36.0,33.0,-100.00,SE,140,31.0,44.0,88,-99.99,,,-99.99,,2013-03-07 08:03:00,
2013-03-07 03:12:00,36.0,32.0,-100.00,SE,135,34.0,47.0,86,-99.99,,,-99.99,,2013-03-07 08:12:00,
2013-03-07 03:23:00,36.0,32.0,-100.00,SE,135,34.0,47.0,86,-99.99,,,-99.99,,2013-03-07 08:23:00,
2013-03-07 03:34:00,36.0,32.0,-100.00,SE,135,34.0,40.0,85,-99.99,,,-99.99,,2013-03-07 08:34:00,
2013-03-07 03:44:00,36.0,31.0,-100.00,SE,135,29.0,38.0,82,-99.99,,,-99.99,,2013-03-07 08:44:00,
2013-03-07 03:54:00,36.0,31.0,-100.00,SE,135,29.0,38.0,82,-99.99,,,-99.99,,2013-03-07 08:54:00,
2013-03-07 04:03:00,36.0,31.0,-100.00,ESE,115,30.0,37.0,81,-99.99,,,-99.99,,2013-03-07 09:03:00,
2013-03-07 04:14:00,36.0,30.0,-100.00,ESE,110,28.0,40.0,78,-99.99,,,-99.99,,2013-03-07 09:14:00,
2013-03-07 04:24:00,36.0,30.0,-100.00,ESE,110,28.0,40.0,78,-99.99,,,-99.99,,2013-03-07 09:24:00,
2013-03-07 04:33:00,37.0,30.0,-100.00,ESE,105,26.0,32.0,77,-99.99,,,-99.99,,2013-03-07 09:33:00,
2013-03-07 04:43:00,37.0,30.0,-100.00,ESE,105,30.0,37.0,76,-99.99,,,-99.99,,2013-03-07 09:43:00,
2013-03-07 04:54:00,37.0,30.0,-100.00,ESE,105,30.0,37.0,76,-99.99,,,-99.99,,2013-03-07 09:54:00,
2013-03-07 05:04:00,37.0,30.0,-100.00,ESE,105,27.0,34.0,75,-99.99,,,-99.99,,2013-03-07 10:04:00,
2013-03-07 05:13:00,37.0,30.0,-100.00,East,100,29.0,35.0,75,-99.99,,,-99.99,,2013-03-07 10:13:00,
2013-03-07 05:24:00,37.0,30.0,-100.00,East,100,29.0,35.0,75,-99.99,,,-99.99,,2013-03-07 10:24:00,
2013-03-07 05:33:00,37.0,30.0,-100.00,East,100,28.0,35.0,75,-99.99,,,-99.99,,2013-03-07 10:33:00,
2013-03-07 05:43:00,37.0,30.0,-100.00,ESE,105,25.0,38.0,74,-99.99,,,-99.99,,2013-03-07 10:43:00,
2013-03-07 05:53:00,37.0,30.0,-100.00,ESE,105,25.0,38.0,74,-99.99,,,-99.99,,2013-03-07 10:53:00,
2013-03-07 06:03:00,37.0,29.0,-100.00,East,100,29.0,34.0,73,-99.99,,,-99.99,,2013-03-07 11:03:00,
2013-03-07 06:12:00,37.0,28.0,-100.00,East,95,28.0,38.0,70,-99.99,,,-99.99,,2013-03-07 11:12:00,
2013-03-07 06:23:00,37.0,28.0,-100.00,East,95,28.0,38.0,70,-99.99,,,-99.99,,2013-03-07 11:23:00,
2013-03-07 06:33:00,37.0,28.0,-100.00,East,95,28.0,34.0,69,-99.99,,,-99.99,,2013-03-07 11:33:00,
2013-03-07 06:43:00,37.0,28.0,-100.00,East,100,26.0,35.0,69,-99.99,,,-99.99,,2013-03-07 11:43:00,
2013-03-07 06:55:00,37.0,28.0,-100.00,East,100,26.0,35.0,69,-99.99,,,-99.99,,2013-03-07 11:55:00,
2013-03-07 07:04:00,37.0,28.0,-100.00,ESE,105,24.0,31.0,68,-99.99,,,-99.99,,2013-03-07 12:04:00,
2013-03-07 07:13:00,37.0,27.0,-100.00,East,100,25.0,32.0,67,-99.99,,,-99.99,,2013-03-07 12:13:00,
2013-03-07 07:23:00,37.0,27.0,-100.00,East,100,25.0,32.0,67,-99.99,,,-99.99,,2013-03-07 12:23:00,
2013-03-07 07:34:00,37.0,27.0,-100.00,East,95,26.0,31.0,67,-99.99,,,-99.99,,2013-03-07 12:34:00,
2013-03-07 07:43:00,37.0,27.0,-100.00,East,95,26.0,35.0,65,-99.99,,,-99.99,,2013-03-07 12:43:00,
2013-03-07 07:53:00,37.0,27.0,-100.00,East,95,26.0,35.0,65,-99.99,,,-99.99,,2013-03-07 12:53:00,
2013-03-07 08:03:00,38.0,27.0,-100.00,East,100,26.0,32.0,64,-99.99,,,-99.99,,2013-03-07 13:03:00,
2013-03-07 08:13:00,38.0,26.0,-100.00,ESE,105,21.0,30.0,63,-99.99,,,-99.99,,2013-03-07 13:13:00,
2013-03-07 08:23:00,38.0,26.0,-100.00,ESE,105,21.0,30.0,63,-99.99,,,-99.99,,2013-03-07 13:23:00,
2013-03-07 08:33:00,38.0,26.0,-100.00,ESE,105,25.0,35.0,61,-99.99,,,-99.99,,2013-03-07 13:33:00,
2013-03-07 08:42:00,38.0,26.0,-100.00,East,95,27.0,34.0,61,-99.99,,,-99.99,,2013-03-07 13:42:00,
2013-03-07 08:53:00,38.0,26.0,-100.00,East,95,27.0,34.0,61,-99.99,,,-99.99,,2013-03-07 13:53:00,
2013-03-07 09:02:00,38.0,25.0,-100.00,East,95,27.0,35.0,60,-99.99,,,-99.99,,2013-03-07 14:02:00,
2013-03-07 09:12:00,39.0,26.0,-100.00,East,100,24.0,33.0,59,-99.99,,,-99.99,,2013-03-07 14:12:00,
2013-03-07 09:23:00,39.0,26.0,-100.00,East,100,24.0,33.0,59,-99.99,,,-99.99,,2013-03-07 14:23:00,
2013-03-07 09:33:00,40.0,25.0,-100.00,East,95,27.0,35.0,55,-99.99,,,-99.99,,2013-03-07 14:33:00,
2013-03-07 09:43:00,40.0,25.0,-100.00,East,95,26.0,33.0,54,-99.99,,,-99.99,,2013-03-07 14:43:00,
2013-03-07 09:54:00,40.0,25.0,-100.00,East,95,26.0,33.0,54,-99.99,,,-99.99,,2013-03-07 14:54:00,
2013-03-07 10:03:00,40.0,25.0,-100.00,East,90,23.0,34.0,53,-99.99,,,-99.99,,2013-03-07 15:03:00,
2013-03-07 10:13:00,41.0,25.0,-100.00,East,80,23.0,28.0,53,-99.99,,,-99.99,,2013-03-07 15:13:00,
2013-03-07 10:23:00,41.0,25.0,-100.00,East,80,23.0,28.0,53,-99.99,,,-99.99,,2013-03-07 15:23:00,
2013-03-07 10:33:00,41.0,25.0,-100.00,ENE,70,24.0,32.0,51,-99.99,,,-99.99,,2013-03-07 15:33:00,
2013-03-07 10:43:00,41.0,24.0,-100.00,ENE,60,27.0,31.0,49,-99.99,,,-99.99,,2013-03-07 15:43:00,
2013-03-07 10:53:00,41.0,24.0,-100.00,ENE,60,27.0,31.0,49,-99.99,,,-99.99,,2013-03-07 15:53:00,
2013-03-07 11:03:00,42.0,24.0,-100.00,NE,55,28.0,34.0,48,-99.99,,,-99.99,,2013-03-07 16:03:00,
2013-03-07 11:13:00,42.0,25.0,-100.00,NE,50,20.0,29.0,49,-99.99,,,-99.99,,2013-03-07 16:13:00,
2013-03-07 11:24:00,42.0,25.0,-100.00,NE,50,20.0,29.0,49,-99.99,,,-99.99,,2013-03-07 16:24:00,
2013-03-07 11:33:00,43.0,25.0,-100.00,NE,40,24.0,32.0,49,-99.99,,,-99.99,,2013-03-07 16:33:00,
2013-03-07 11:43:00,42.0,24.0,-100.00,NNE,30,26.0,32.0,48,-99.99,,,-99.99,,2013-03-07 16:43:00,
2013-03-07 11:53:00,42.0,24.0,-100.00,NNE,30,26.0,32.0,48,-99.99,,,-99.99,,2013-03-07 16:53:00,
2013-03-07 12:03:00,43.0,25.0,-100.00,NNE,25,23.0,27.0,49,-99.99,,,-99.99,,2013-03-07 17:03:00,
2013-03-07 12:12:00,44.0,24.0,-100.00,NNE,15,23.0,30.0,46,-99.99,,,-99.99,,2013-03-07 17:12:00,
2013-03-07 12:23:00,44.0,24.0,-100.00,NNE,15,23.0,30.0,46,-99.99,,,-99.99,,2013-03-07 17:23:00,
2013-03-07 12:33:00,44.0,25.0,-100.00,North,10,22.0,32.0,46,-99.99,,,-99.99,,2013-03-07 17:33:00,
2013-03-07 12:43:00,44.0,24.0,-100.00,North,10,25.0,33.0,45,-99.99,,,-99.99,,2013-03-07 17:43:00,
2013-03-07 12:55:00,44.0,24.0,-100.00,North,10,25.0,33.0,45,-99.99,,,-99.99,,2013-03-07 17:55:00,
2013-03-07 13:04:00,45.0,25.0,-100.00,North,5,22.0,30.0,45,-99.99,,,-99.99,,2013-03-07 18:04:00,
2013-03-07 13:13:00,45.0,24.0,-100.00,North,5,22.0,28.0,44,-99.99,,,-99.99,,2013-03-07 18:13:00,
2013-03-07 13:22:00,45.0,24.0,-100.00,North,5,22.0,28.0,44,-99.99,,,-99.99,,2013-03-07 18:22:00,
2013-03-07 13:32:00,45.0,24.0,-100.00,North,5,27.0,32.0,43,-99.99,,,-99.99,,2013-03-07 18:32:00,
2013-03-07 13:42:00,46.0,24.0,-100.00,North,5,24.0,30.0,43,-99.99,,,-99.99,,2013-03-07 18:42:00,
2013-03-07 13:53:00,46.0,24.0,-100.00,North,5,24.0,30.0,43,-99.99,,,-99.99,,2013-03-07 18:53:00,
2013-03-07 14:03:00,45.0,24.0,-100.00,North,5,23.0,31.0,42,-99.99,,,-99.99,,2013-03-07 19:03:00,
2013-03-07 14:12:00,46.0,25.0,-100.00,North,5,16.0,26.0,42,-99.99,,,-99.99,,2013-03-07 19:12:00,
2013-03-07 14:24:00,46.0,25.0,-100.00,North,5,16.0,26.0,42,-99.99,,,-99.99,,2013-03-07 19:24:00,
2013-03-07 14:35:00,46.0,25.0,-100.00,North,5,22.0,26.0,42,-99.99,,,-99.99,,2013-03-07 19:35:00,
2013-03-07 14:43:00,47.0,24.0,-100.00,North,5,22.0,31.0,41,-99.99,,,-99.99,,2013-03-07 19:43:00,
2013-03-07 14:53:00,47.0,24.0,-100.00,North,5,24.0,29.0,41,-99.99,,,-99.99,,2013-03-07 19:53:00,
2013-03-07 15:02:00,47.0,24.0,-100.00,North,5,24.0,29.0,41,-99.99,,,-99.99,,2013-03-07 20:02:00,
2013-03-07 15:14:00,47.0,24.0,-100.00,North,5,24.0,29.0,40,-99.99,,,-99.99,,2013-03-07 20:14:00,
2013-03-07 15:23:00,47.0,24.0,-100.00,North,5,24.0,29.0,40,-99.99,,,-99.99,,2013-03-07 20:23:00,
2013-03-07 15:34:00,49.0,25.0,-100.00,North,5,20.0,28.0,39,-99.99,,,-99.99,,2013-03-07 20:34:00,
2013-03-07 15:43:00,49.0,25.0,-100.00,North,5,24.0,28.0,38,-99.99,,,-99.99,,2013-03-07 20:43:00,
2013-03-07 15:54:00,49.0,25.0,-100.00,North,5,24.0,28.0,38,-99.99,,,-99.99,,2013-03-07 20:54:00,
2013-03-07 16:03:00,47.0,24.0,-100.00,North,5,23.0,30.0,39,-99.99,,,-99.99,,2013-03-07 21:03:00,
2013-03-07 16:13:00,47.0,24.0,-100.00,North,5,19.0,27.0,40,-99.99,,,-99.99,,2013-03-07 21:13:00,
2013-03-07 16:23:00,47.0,24.0,-100.00,North,5,19.0,27.0,40,-99.99,,,-99.99,,2013-03-07 21:23:00,
2013-03-07 16:33:00,46.0,24.0,-100.00,North,5,19.0,28.0,41,-99.99,,,-99.99,,2013-03-07 21:33:00,
2013-03-07 16:43:00,46.0,24.0,-100.00,North,5,20.0,25.0,42,-99.99,,,-99.99,,2013-03-07 21:43:00,
2013-03-07 16:53:00,46.0,24.0,-100.00,North,5,20.0,25.0,42,-99.99,,,-99.99,,2013-03-07 21:53:00,
2013-03-07 17:02:00,46.0,24.0,-100.00,North,5,23.0,27.0,42,-99.99,,,-99.99,,2013-03-07 22:02:00,
2013-03-07 17:12:00,46.0,24.0,-100.00,North,5,21.0,30.0,42,-99.99,,,-99.99,,2013-03-07 22:12:00,
2013-03-07 17:23:00,46.0,24.0,-100.00,North,5,21.0,30.0,42,-99.99,,,-99.99,,2013-03-07 22:23:00,
2013-03-07 17:33:00,45.0,24.0,-100.00,North,5,21.0,26.0,43,-99.99,,,-99.99,,2013-03-07 22:33:00,
2013-03-07 17:43:00,45.0,24.0,-100.00,North,5,18.0,23.0,43,-99.99,,,-99.99,,2013-03-07 22:43:00,
2013-03-07 18:00:00,45.0,25.0,-100.00,North,5,16.0,23.0,45,-99.99,,,-99.99,,2013-03-07 23:00:00,
2013-03-07 18:03:00,45.0,24.0,-100.00,North,5,20.0,28.0,42,-99.99,,,-99.99,,2013-03-07 23:03:00,
2013-03-07 18:13:00,45.0,24.0,-100.00,North,5,18.0,24.0,43,-99.99,,,-99.99,,2013-03-07 23:13:00,
2013-03-07 18:22:00,45.0,24.0,-100.00,North,5,18.0,24.0,43,-99.99,,,-99.99,,2013-03-07 23:22:00,
2013-03-07 18:34:00,45.0,24.0,-100.00,North,5,16.0,21.0,44,-99.99,,,-99.99,,2013-03-07 23:34:00,
2013-03-07 18:44:00,45.0,25.0,-100.00,North,5,16.0,23.0,45,-99.99,,,-99.99,,2013-03-07 23:44:00,
2013-03-07 18:54:00,45.0,25.0,-100.00,North,5,16.0,23.0,45,-99.99,,,-99.99,,2013-03-07 23:54:00,
2013-03-07 19:13:00,44.0,26.0,-100.00,North,5,20.0,24.0,49,-99.99,,,-99.99,,2013-03-08 00:13:00,
2013-03-07 19:23:00,44.0,26.0,-100.00,North,5,20.0,24.0,49,-99.99,,,-99.99,,2013-03-08 00:23:00,
2013-03-07 19:34:00,44.0,26.0,-100.00,North,5,17.0,24.0,50,-99.99,,,-99.99,,2013-03-08 00:34:00,
2013-03-07 19:44:00,44.0,27.0,-100.00,North,5,19.0,23.0,51,-99.99,,,-99.99,,2013-03-08 00:44:00,
2013-03-07 19:54:00,44.0,27.0,-100.00,North,5,19.0,23.0,51,-99.99,,,-99.99,,2013-03-08 00:54:00,
2013-03-07 20:02:00,43.0,26.0,-100.00,North,5,19.0,26.0,51,-99.99,,,-99.99,,2013-03-08 01:02:00,
2013-03-07 20:12:00,43.0,27.0,-100.00,North,5,14.0,22.0,54,-99.99,,,-99.99,,2013-03-08 01:12:00,
2013-03-07 20:22:00,43.0,27.0,-100.00,North,5,14.0,22.0,54,-99.99,,,-99.99,,2013-03-08 01:22:00,
2013-03-07 20:33:00,42.0,27.0,-100.00,North,10,17.0,25.0,55,-99.99,,,-99.99,,2013-03-08 01:33:00,
2013-03-07 20:42:00,42.0,28.0,-100.00,North,10,19.0,23.0,56,-99.99,,,-99.99,,2013-03-08 01:42:00,
2013-03-07 20:52:00,42.0,28.0,-100.00,North,10,19.0,23.0,56,-99.99,,,-99.99,,2013-03-08 01:52:00,
2013-03-07 21:02:00,42.0,27.0,-100.00,North,10,22.0,27.0,56,-99.99,,,-99.99,,2013-03-08 02:02:00,
2013-03-07 21:12:00,42.0,28.0,-100.00,North,10,15.0,24.0,57,-99.99,,,-99.99,,2013-03-08 02:12:00,
2013-03-07 21:22:00,42.0,28.0,-100.00,North,10,15.0,24.0,57,-99.99,,,-99.99,,2013-03-08 02:22:00,
2013-03-07 21:32:00,42.0,28.0,-100.00,North,10,20.0,25.0,59,-99.99,,,-99.99,,2013-03-08 02:32:00,
2013-03-07 21:42:00,41.0,29.0,-100.00,North,10,15.0,21.0,61,-99.99,,,-99.99,,2013-03-08 02:42:00,
2013-03-07 21:53:00,41.0,29.0,-100.00,North,10,15.0,21.0,61,-99.99,,,-99.99,,2013-03-08 02:53:00,
2013-03-07 22:02:00,41.0,28.0,-100.00,North,10,23.0,32.0,60,-99.99,,,-99.99,,2013-03-08 03:02:00,
2013-03-07 22:12:00,41.0,29.0,-100.00,North,10,18.0,26.0,61,-99.99,,,-99.99,,2013-03-08 03:12:00,
2013-03-07 22:33:00,41.0,28.0,-100.00,North,10,19.0,24.0,61,-99.99,,,-99.99,,2013-03-08 03:33:00,
2013-03-07 22:43:00,40.0,28.0,-100.00,North,10,19.0,25.0,61,-99.99,,,-99.99,,2013-03-08 03:43:00,
2013-03-07 22:53:00,40.0,28.0,-100.00,North,10,19.0,25.0,61,-99.99,,,-99.99,,2013-03-08 03:53:00,
2013-03-07 23:02:00,41.0,28.0,-100.00,North,10,18.0,23.0,60,-99.99,,,-99.99,,2013-03-08 04:02:00,
2013-03-07 23:12:00,41.0,28.0,-100.00,North,10,21.0,26.0,60,-99.99,,,-99.99,,2013-03-08 04:12:00,
2013-03-07 23:22:00,41.0,28.0,-100.00,North,10,21.0,26.0,60,-99.99,,,-99.99,,2013-03-08 04:22:00,
2013-03-07 23:32:00,40.0,28.0,-100.00,North,10,23.0,32.0,60,-99.99,,,-99.99,,2013-03-08 04:32:00,
2013-03-07 23:42:00,40.0,28.0,-100.00,North,10,20.0,29.0,61,-99.99,,,-99.99,,2013-03-08 04:42:00,
2013-03-07 23:52:00,40.0,28.0,-100.00,North,10,20.0,29.0,61,-99.99,,,-99.99,,2013-03-08 04:52:00,